Regional Weather Roundup
Issued by NWS

Home | Current Version | Previous Version | Text Only | Print | Product List | Glossary On
Versions: 1 2 3 4 5 6 7 8 9 10 11 12 13 14 15 16 17 18 19 20 21 22 23 24 25 26 27 28 29 30 31 32 33 34 35 36 37 38 39 40 41 42 43 44 45 46 47 48 49 50
000
ASUS43 KTOP 031659
RWRKS

WEATHER ROUNDUP FOR KANSAS
NATIONAL WEATHER SERVICE GOODLAND KS
1200 PM CDT THU SEP 03 2015

NOTE:  "FAIR" INDICATES FEW OR NO CLOUDS BELOW 12,000 FEET WITH NO
SIGNIFICANT WEATHER AND/OR OBSTRUCTIONS TO VISIBILITY.

KSZ001>006-013>018-027>032-041>047-031800-
NORTHWEST KANSAS

CITY           SKY/WX    TMP DP  RH WIND       PRES   REMARKS
GOODLAND       MOSUNNY   87  49  26 S9        29.90S
HAYS             N/A    N/A N/A N/A MISG        N/A
HILL CITY      SUNNY     91  59  33 S12       29.83F
RUSSELL        SUNNY     91  60  35 S20G26    29.84S
$$

KSZ061>065-074>080-084>089-031800-
SOUTHWEST KANSAS

CITY           SKY/WX    TMP DP  RH WIND       PRES   REMARKS
DODGE CITY     SUNNY     85  56  37 S16       29.91R
ELKHART          N/A     89  56  32 SW9         N/A
GARDEN CITY    MOSUNNY   88  57  34 S15       29.88S
GREAT BEND     SUNNY     90  63  40 S22G28    29.86F
LIBERAL        MOSUNNY   90  57  33 S13       29.92F
$$

KSZ066>073-081>083-090>101-031800-
SOUTHEAST KANSAS

CITY           SKY/WX    TMP DP  RH WIND       PRES   REMARKS
CHANUTE        SUNNY     85  70  60 S14       29.99F
COFFEYVILLE    SUNNY     85  72  65 S12       29.99F
HUTCHINSON     SUNNY     91  64  40 S20G31    29.91F
NEWTON         SUNNY     88  63  42 S21       29.96F
PARSONS        SUNNY     85  71  63 S10       30.00F
WICHITA INTL   PTSUNNY   90  65  43 S21       29.93F
WICHITA JABRA  SUNNY     86  67  52 S15G24    29.94F
WINFIELD       SUNNY     90  66  45 S14       29.97F
$$

KSZ007>012-019>026-033>040-048>060-102>105-031800-
NORTHEAST KANSAS

CITY           SKY/WX    TMP DP  RH WIND       PRES   REMARKS
CONCORDIA      SUNNY     87  65  47 S16G25    29.86F
EMPORIA        SUNNY     88  65  46 S20G25    29.94F
LAWRENCE       SUNNY     89  69  51 S15       29.94F
MANHATTAN      SUNNY     92  64  39 S17G24    29.89F
OLATHE IND     SUNNY     85  70  60 S10       29.98F
OLATHE EXE     SUNNY     83  70  64 S10       29.97F
SALINA         SUNNY     92  64  39 S20G29    29.87F
TOPEKA BILLARD SUNNY     88  67  49 S10       29.92F
TOPEKA FORBES  MOSUNNY   88  68  51 S18       29.93F
$$



USA.gov is the U.S. government's official web portal to all federal, state and local government web resources and services.